Rolla, MO

4:03 AM CST on December 07, 2019 (GMT -0600)
Rolla National

Weather History for KVIH - July, 2019

Change the Weather History Date:

Monday, July 22, 2019

  Actual Average Record
Temperature  
Mean Temperature 74 °F 78 °F  
Max Temperature 81 °F 89 °F 108 °F (1901)
Min Temperature 66 °F 67 °F 55 °F (1902)
Degree Days  
Heating Degree Days 0 0  
Month to date heating degree days 0 0  
Since 1 June heating degree days 12 14  
Since 1 July heating degree days 0 0  
Cooling Degree Days 9 13  
Month to date cooling degree days 269 267  
Year to date cooling degree days 631 609  
Since 1 June cooling degree days 480 502  
Growing Degree Days 24 (Base 50)    
Moisture  
Dew Point 67 °F    
Average Humidity 71    
Maximum Humidity 97    
Minimum Humidity 45    
Precipitation  
Precipitation 2.52 in 0.14 in 2.52 in (2019)
Month to date precipitation 4.15 3.18  
Year to date precipitation 27.19 24.62  
Sea Level Pressure  
Sea Level Pressure 30.00 in    
Wind  
Wind Speed 8 mph (North)    
Max Wind Speed 21 mph    
Max Gust Speed 27 mph    
Visibility 7 miles    
Events Fog , Rain    
T = Trace of Precipitation, MM = Missing Value Source: NWS Daily Summary

Daily Weather History Graph

Daily Weather History Graph

Search for Another Location

Airport or City:

Astronomy

Jul. 22, 2019 Rise Set
Actual Time 6:01 AM CDT 8:25 PM CDT
Civil Twilight 5:31 AM CDT 8:55 PM CDT
Nautical Twilight 4:53 AM CDT 9:32 PM CDT
Astronomical Twilight 4:12 AM CDT 10:13 PM CDT
Moon 11:51 PM CDT (7/22) 11:14 AM CDT (7/22)
Length of Visible Light 15h 24m
Length of Day
14h 23m
Waning Gibbous, 72% of the Moon is Illuminated
Jul 22
Waning Gibbous
Jul 24
Last Quarter
Jul 31
New
Aug 7
First Quarter
Aug 15
Full

Hourly Weather History & Observations

Time (CDT) Temp. Heat Index Dew Point Humidity Pressure Visibility Wind Dir Wind Speed Gust Speed Precip Events Conditions
12:53 AM 75.0 °F - 72.0 °F 90% 29.93 in 8.0 mi Calm Calm - 0.09 in Rain Rain
1:53 AM 73.9 °F - 72.0 °F 93% 29.93 in 10.0 mi Calm Calm - 0.02 in Rain Light Rain
2:41 AM 73.9 °F - 72.0 °F 93% 29.98 in 10.0 mi WNW 3.5 mph - 0.02 in Rain Light Rain
2:51 AM 73.4 °F - 71.6 °F 94% 29.97 in 9.0 mi WNW 3.5 mph - 0.03 in Rain Light Rain
2:53 AM 73.9 °F - 72.0 °F 93% 29.93 in 9.0 mi WNW 3.5 mph - 0.03 in Rain Light Rain
3:11 AM 73.9 °F - 73.0 °F 97% 29.97 in 5.0 mi WNW 3.5 mph - 0.02 in Rain Rain
3:17 AM 73.9 °F - 72.0 °F 93% 29.97 in 4.0 mi NNW 3.5 mph - 0.04 in Rain Rain
3:39 AM 73.9 °F - 72.0 °F 93% 29.97 in 2.0 mi West 6.9 mph - 0.20 in Rain Heavy Rain
3:48 AM 73.4 °F - 71.6 °F 94% 29.96 in 1.2 mi NW 8.1 mph - 0.47 in Rain Heavy Rain
3:53 AM 73.0 °F - 72.0 °F 96% 29.92 in 0.8 mi NNW 6.9 mph - 0.72 in Rain Heavy Rain
3:58 AM 73.0 °F - 72.0 °F 96% 29.97 in 0.5 mi North 4.6 mph - 0.26 in Fog , Rain Heavy Rain
4:04 AM 73.0 °F - 72.0 °F 96% 29.97 in 1.0 mi SE 8.1 mph - 0.35 in Rain Heavy Rain
4:18 AM 72.0 °F - 71.1 °F 97% 29.97 in 2.0 mi ENE 4.6 mph - 0.54 in Rain Heavy Rain
4:26 AM 71.1 °F - 70.0 °F 96% 29.98 in 3.0 mi East 5.8 mph - 0.61 in Rain Heavy Rain
4:37 AM 71.1 °F - 68.0 °F 90% 29.97 in 3.0 mi Calm Calm - 0.72 in Rain Heavy Rain
4:39 AM 71.1 °F - 69.1 °F 93% 29.97 in 1.8 mi Calm Calm - 0.78 in Rain Heavy Rain
4:50 AM 69.8 °F - 68.0 °F 94% 29.98 in 1.0 mi North 3.5 mph - 1.07 in Rain Heavy Rain
4:53 AM 70.0 °F - 68.0 °F 93% 29.94 in 1.0 mi Calm Calm - 1.18 in Rain Heavy Rain
5:16 AM 70.0 °F - 69.1 °F 97% 29.97 in 3.0 mi South 8.1 mph - 0.30 in Rain Rain
5:26 AM 70.0 °F - 69.1 °F 97% 29.96 in 10.0 mi SSW 5.8 mph - 0.31 in Rain Light Rain
5:53 AM 71.1 °F - 68.0 °F 90% 29.92 in 8.0 mi NNE 6.9 mph - 0.37 in Rain Rain
6:46 AM 71.1 °F - 69.1 °F 93% 29.97 in 6.0 mi North 8.1 mph - 0.05 in Rain Light Rain
6:49 AM 71.6 °F - 69.8 °F 94% 29.98 in 2.0 mi North 9.2 mph - 0.11 in Rain Heavy Rain
6:51 AM 71.6 °F - 69.8 °F 94% 29.98 in 1.5 mi North 12.7 mph 19.6 mph 0.15 in Rain Heavy Rain
6:53 AM 71.1 °F - 69.1 °F 93% 29.94 in 1.0 mi North 13.8 mph 19.6 mph 0.18 in Rain Heavy Rain
7:01 AM 70.0 °F - 69.1 °F 97% 29.99 in 2.5 mi North 18.4 mph 27.6 mph 0.01 in Rain Light Rain
7:08 AM 70.0 °F - 68.0 °F 93% 29.99 in 10.0 mi North 16.1 mph 27.6 mph 0.01 in Rain Light Rain
7:53 AM 66.9 °F - 64.9 °F 93% 29.99 in 10.0 mi NNE 13.8 mph 23.0 mph 0.02 in   Overcast
8:44 AM 66.0 °F - 64.0 °F 93% 30.05 in 10.0 mi NNE 10.4 mph - 0.00 in   Overcast
8:53 AM 66.0 °F - 64.0 °F 93% 30.02 in 10.0 mi NNE 8.1 mph - 0.00 in Rain Light Rain
9:14 AM 66.9 °F - 64.9 °F 93% 30.06 in 6.0 mi NNE 10.4 mph - 0.00 in Rain Light Rain
9:53 AM 66.9 °F - 64.0 °F 90% 30.04 in 10.0 mi NNE 11.5 mph - 0.00 in   Overcast
10:44 AM 69.1 °F - 64.0 °F 84% 30.08 in 10.0 mi NNE 12.7 mph - N/A   Mostly Cloudy
10:53 AM 71.1 °F - 64.9 °F 81% 30.05 in 10.0 mi NNE 15.0 mph 20.7 mph N/A   Mostly Cloudy
11:05 AM 72.0 °F - 63.0 °F 73% 30.08 in 10.0 mi NE 15.0 mph 23.0 mph N/A   Partly Cloudy
11:53 AM 75.9 °F - 62.1 °F 62% 30.05 in 10.0 mi NE 12.7 mph - N/A   Clear
12:53 PM 78.1 °F - 63.0 °F 60% 30.05 in 10.0 mi North 11.5 mph - N/A   Clear
1:53 PM 80.1 °F 81.5 °F 63.0 °F 56% 30.05 in 10.0 mi NNE 9.2 mph - N/A   Scattered Clouds
2:53 PM 77.0 °F - 62.1 °F 60% 30.04 in 10.0 mi North 12.7 mph - N/A   Overcast
3:53 PM 80.1 °F 81.2 °F 62.1 °F 54% 30.04 in 10.0 mi North 10.4 mph 20.7 mph N/A   Mostly Cloudy
4:53 PM 81.0 °F 81.1 °F 57.9 °F 45% 30.04 in 10.0 mi North 13.8 mph - N/A   Clear
5:53 PM 80.1 °F 81.1 °F 61.0 °F 52% 30.03 in 10.0 mi North 9.2 mph - N/A   Partly Cloudy
6:53 PM 78.1 °F - 62.1 °F 58% 30.04 in 10.0 mi NNE 8.1 mph - N/A   Clear
7:53 PM 73.9 °F - 62.1 °F 66% 30.06 in 10.0 mi North 8.1 mph - N/A   Clear
8:53 PM 71.1 °F - 62.1 °F 73% 30.08 in 10.0 mi North 4.6 mph - N/A   Clear
9:53 PM 69.1 °F - 63.0 °F 81% 30.09 in 10.0 mi North 4.6 mph - N/A   Partly Cloudy
10:53 PM 69.1 °F - 63.0 °F 81% 30.10 in 10.0 mi North 6.9 mph - N/A   Partly Cloudy
11:53 PM 68.0 °F - 63.0 °F 84% 30.12 in 10.0 mi NNE 5.8 mph - N/A   Clear